When you browse on this site, cookies collect data to enhance your experience and personalize the content and advertising you see.
Visit our Privacy Policy to learn more. By continuing to use the site, you agree to this use of cookies and data.
  • In United Kingdom
  • List of Countries
  • For 7 days
  • Water Temperature
  • Satellite Maps
  • Weather Map
  • Weather Widgets
  • user-avatar
    Login

    Hourly Weather Muruntov

    Today, 19 May, Sunday

    Time Temperature Precipitation Wind Pressure Humidity
    00:00 +22°C° 0 mm 4 mps 710 mmHg 37%
    01:00 +21°C° 0 mm 4 mps 710 mmHg 37%
    02:00 +21°C° 0 mm 3 mps 710 mmHg 38%
    03:00 +21°C° 0 mm 3 mps 710 mmHg 40%
    04:00 +21°C° 0 mm 3 mps 710 mmHg 40%
    05:00 +22°C° 0 mm 4 mps 710 mmHg 38%
    06:00 +23°C° 0 mm 4 mps 710 mmHg 36%
    07:00 +25°C° 0 mm 5 mps 711 mmHg 34%
    08:00 +26°C° 0 mm 4 mps 711 mmHg 31%
    09:00 +27°C° 0 mm 3 mps 711 mmHg 28%
    10:00 +28°C° 0 mm 3 mps 711 mmHg 25%
    11:00 +28°C° 0 mm 2 mps 711 mmHg 24%
    12:00 +28°C° 0 mm 2 mps 711 mmHg 24%
    13:00 +29°C° 0 mm 2 mps 711 mmHg 23%
    14:00 +29°C° 0 mm 1 mps 711 mmHg 23%
    15:00 +29°C° 0 mm 1 mps 711 mmHg 22%
    16:00 +27°C° 0 mm 0 mps 711 mmHg 22%
    17:00 +29°C° 0 mm 1 mps 711 mmHg 23%
    18:00 +28°C° 0 mm 1 mps 710 mmHg 24%
    19:00 +28°C° 0 mm 1 mps 710 mmHg 25%
    20:00 +27°C° 0 mm 1 mps 710 mmHg 26%
    21:00 +27°C° 0 mm 2 mps 710 mmHg 26%
    22:00 +26°C° 0 mm 3 mps 710 mmHg 27%
    23:00 +26°C° 0 mm 3 mps 710 mmHg 28%

    Tomorrow, 20 May, Monday

    Time Temperature Precipitation Wind Pressure Humidity
    00:00 +25°C° 0 mm 3 mps 710 mmHg 30%
    01:00 +25°C° 0 mm 4 mps 709 mmHg 32%
    02:00 +23°C° 0 mm 4 mps 709 mmHg 33%
    03:00 +23°C° 0 mm 4 mps 709 mmHg 34%
    04:00 +22°C° 0 mm 3 mps 709 mmHg 36%
    05:00 +23°C° 0 mm 4 mps 709 mmHg 34%
    06:00 +25°C° 0 mm 4 mps 709 mmHg 31%
    07:00 +26°C° 0 mm 4 mps 710 mmHg 29%
    08:00 +28°C° 0 mm 4 mps 710 mmHg 27%
    09:00 +29°C° 0 mm 4 mps 709 mmHg 24%
    10:00 +30°C° 0 mm 5 mps 709 mmHg 22%
    11:00 +32°C° 0 mm 5 mps 709 mmHg 20%
    12:00 +32°C° 0 mm 5 mps 709 mmHg 18%
    13:00 +33°C° 0 mm 5 mps 709 mmHg 16%
    14:00 +34°C° 0 mm 5 mps 708 mmHg 15%
    15:00 +34°C° 0 mm 5 mps 708 mmHg 14%
    16:00 +35°C° 0 mm 5 mps 707 mmHg 13%
    17:00 +34°C° 0 mm 5 mps 707 mmHg 13%
    18:00 +34°C° 0 mm 4 mps 707 mmHg 14%
    19:00 +33°C° 0 mm 3 mps 706 mmHg 14%
    20:00 +31°C° 0 mm 3 mps 706 mmHg 15%
    21:00 +31°C° 0 mm 3 mps 706 mmHg 15%
    22:00 +30°C° 0 mm 3 mps 706 mmHg 16%
    23:00 +29°C° 0 mm 3 mps 706 mmHg 16%

    Day after tomorrow, 21 May, Tuesday

    Time Temperature Precipitation Wind Pressure Humidity
    00:00 +29°C° 0 mm 4 mps 705 mmHg 16%
    01:00 +28°C° 0 mm 4 mps 705 mmHg 17%
    02:00 +28°C° 0 mm 4 mps 705 mmHg 18%
    03:00 +27°C° 0 mm 4 mps 705 mmHg 19%
    04:00 +26°C° 0 mm 4 mps 705 mmHg 20%
    05:00 +26°C° 0 mm 4 mps 706 mmHg 24%
    06:00 +26°C° 0 mm 4 mps 706 mmHg 28%
    07:00 +26°C° 0 mm 5 mps 707 mmHg 33%
    08:00 +27°C° 0 mm 5 mps 707 mmHg 33%
    09:00 +27°C° 0 mm 6 mps 708 mmHg 33%
    10:00 +28°C° 0 mm 6 mps 708 mmHg 33%
    11:00 +28°C° 0 mm 6 mps 708 mmHg 29%
    12:00 +29°C° 0 mm 6 mps 709 mmHg 26%
    13:00 +30°C° 0 mm 6 mps 709 mmHg 23%
    14:00 +30°C° 0 mm 6 mps 709 mmHg 20%
    15:00 +30°C° 0 mm 6 mps 709 mmHg 17%
    16:00 +30°C° 0 mm 6 mps 709 mmHg 13%
    17:00 +29°C° 0 mm 7 mps 710 mmHg 14%
    18:00 +28°C° 0 mm 8 mps 710 mmHg 15%
    19:00 +27°C° 0 mm 8 mps 710 mmHg 16%
    20:00 +24°C° 0 mm 8 mps 711 mmHg 16%
    21:00 +23°C° 0 mm 8 mps 711 mmHg 16%
    22:00 +22°C° 0 mm 8 mps 711 mmHg 17%
    23:00 +21°C° 0 mm 8 mps 711 mmHg 18%

    22 May, Wednesday

    Time Temperature Precipitation Wind Pressure Humidity
    00:00 +20°C° 0 mm 7 mps 711 mmHg 20%
    01:00 +18°C° 0 mm 7 mps 711 mmHg 21%
    02:00 +17°C° 0 mm 7 mps 712 mmHg 23%
    03:00 +16°C° 0 mm 7 mps 712 mmHg 25%
    04:00 +15°C° 0 mm 7 mps 712 mmHg 26%
    05:00 +15°C° 0 mm 7 mps 713 mmHg 25%
    06:00 +15°C° 0 mm 7 mps 713 mmHg 24%
    07:00 +16°C° 0 mm 7 mps 714 mmHg 23%
    08:00 +17°C° 0 mm 7 mps 714 mmHg 21%
    09:00 +18°C° 0 mm 7 mps 714 mmHg 19%
    10:00 +20°C° 0 mm 7 mps 715 mmHg 17%
    11:00 +21°C° 0 mm 6 mps 715 mmHg 16%
    12:00 +21°C° 0 mm 6 mps 715 mmHg 15%
    13:00 +22°C° 0 mm 6 mps 714 mmHg 13%
    14:00 +22°C° 0 mm 6 mps 714 mmHg 13%
    15:00 +23°C° 0 mm 7 mps 714 mmHg 13%
    16:00 +23°C° 0 mm 7 mps 714 mmHg 12%
    17:00 +22°C° 0 mm 7 mps 714 mmHg 13%
    18:00 +22°C° 0 mm 7 mps 714 mmHg 14%
    19:00 +21°C° 0 mm 7 mps 714 mmHg 14%
    20:00 +20°C° 0 mm 7 mps 714 mmHg 15%
    21:00 +20°C° 0 mm 6 mps 714 mmHg 16%
    22:00 +19°C° 0 mm 6 mps 714 mmHg 17%
    23:00 +19°C° 0 mm 6 mps 714 mmHg 18%

    23 May, Thursday

    Time Temperature Precipitation Wind Pressure Humidity
    00:00 +17°C° 0 mm 6 mps 713 mmHg 19%
    01:00 +17°C° 0 mm 6 mps 713 mmHg 20%
    02:00 +16°C° 0 mm 6 mps 713 mmHg 21%
    03:00 +16°C° 0 mm 6 mps 712 mmHg 22%
    04:00 +15°C° 0 mm 6 mps 712 mmHg 23%
    05:00 +16°C° 0 mm 7 mps 712 mmHg 22%
    06:00 +17°C° 0 mm 8 mps 712 mmHg 21%
    07:00 +17°C° 0 mm 8 mps 713 mmHg 20%
    08:00 +18°C° 0 mm 9 mps 712 mmHg 19%
    09:00 +21°C° 0 mm 9 mps 712 mmHg 17%
    10:00 +22°C° 0 mm 9 mps 712 mmHg 16%
    11:00 +23°C° 0 mm 9 mps 712 mmHg 15%
    12:00 +24°C° 0 mm 9 mps 711 mmHg 14%
    13:00 +27°C° 0 mm 9 mps 711 mmHg 13%
    14:00 +27°C° 0 mm 8 mps 711 mmHg 13%
    15:00 +27°C° 0 mm 8 mps 710 mmHg 12%
    16:00 +27°C° 0 mm 8 mps 710 mmHg 12%
    17:00 +27°C° 0 mm 7 mps 710 mmHg 13%
    18:00 +26°C° 0 mm 7 mps 710 mmHg 13%
    19:00 +26°C° 0 mm 6 mps 710 mmHg 14%
    20:00 +24°C° 0 mm 6 mps 710 mmHg 15%
    21:00 +25°C° 0 mm 5 mps 710 mmHg 15%
    22:00 +23°C° 0 mm 5 mps 710 mmHg 16%
    23:00 +23°C° 0 mm 5 mps 710 mmHg 18%

    24 May, Friday

    Time Temperature Precipitation Wind Pressure Humidity
    00:00 +22°C° 0 mm 5 mps 709 mmHg 20%
    01:00 +22°C° 0 mm 5 mps 709 mmHg 22%
    02:00 +21°C° 0 mm 5 mps 709 mmHg 22%
    03:00 +20°C° 0 mm 5 mps 709 mmHg 23%
    04:00 +20°C° 0 mm 5 mps 708 mmHg 24%
    05:00 +20°C° 0 mm 5 mps 709 mmHg 23%
    06:00 +21°C° 0 mm 5 mps 709 mmHg 22%
    07:00 +21°C° 0 mm 6 mps 709 mmHg 20%
    08:00 +23°C° 0 mm 6 mps 709 mmHg 18%
    09:00 +24°C° 0 mm 6 mps 709 mmHg 17%
    10:00 +27°C° 0 mm 6 mps 709 mmHg 15%
    11:00 +27°C° 0 mm 5 mps 709 mmHg 14%
    12:00 +28°C° 0 mm 4 mps 708 mmHg 13%
    13:00 +29°C° 0 mm 3 mps 708 mmHg 12%
    14:00 +29°C° 0 mm 3 mps 708 mmHg 12%
    15:00 +29°C° 0 mm 2 mps 708 mmHg 12%
    16:00 +29°C° 0 mm 2 mps 708 mmHg 12%
    17:00 +29°C° 0 mm 2 mps 708 mmHg 12%
    18:00 +29°C° 0 mm 2 mps 708 mmHg 12%
    19:00 +28°C° 0 mm 2 mps 708 mmHg 12%
    20:00 +28°C° 0 mm 2 mps 709 mmHg 14%
    21:00 +27°C° 0 mm 2 mps 709 mmHg 15%
    22:00 +26°C° 0 mm 2 mps 709 mmHg 16%
    23:00 +26°C° 0 mm 2 mps 709 mmHg 16%
    Show more